x

9414763 - Oakland, Ca (lndc1) Weather Station

6:18pm - Fri 27th Mar 2015 All times are PDT. -7 hours from GMT.

  • Wind
    10mph, 17mph gusts
  • Air Temp 59°f
  • Sea Pressure 1020.2mb
  • 9414763 - Oakland, Ca
  • 9414763 - Oakland, Ca

More Historic Weather Station data

Upgrade to MSW Pro to gain access to the past 30 days of data for over 8000 Wavebouys and Weather Stations around the globe.

Join Pro

Comparision Forecast

View Surf forecast
   
Fri 03/27 6:18pm 10 17 mph 1020.2mb 59f
6:12pm 11 16 mph 1020.1mb 59f
6:06pm 15 18 mph 1020.2mb 58f
6:00pm 15 20 mph 1020.2mb 59f
5:54pm 13 17 mph 1020.1mb 59f
5:48pm 13 16 mph 1020.1mb 59f
5:42pm 10 15 mph 1020.1mb 60f
5:36pm 13 17 mph 1020.1mb 59f
5:30pm 14 16 mph 1020mb 59f
5:24pm 13 15 mph 1020mb 60f
5:18pm 14 16 mph 1020mb 60f
5:12pm 11 14 mph 1020mb 60f
5:06pm 11 14 mph 1020mb 60f
5:00pm 9 13 mph 1020.1mb 61f
4:54pm 9 13 mph 1020.1mb 61f
4:48pm 10 13 mph 1020mb 61f
4:42pm 9 11 mph 1020mb 61f
4:36pm 8 11 mph 1020mb 61f
4:30pm 9 11 mph 1020.1mb 61f
4:24pm 8 11 mph 1020mb 61f
4:18pm 9 13 mph 1020.1mb 60f
4:12pm 10 13 mph 1020.2mb 60f
4:06pm 9 13 mph 1020.2mb 60f
4:00pm 10 11 mph 1020.2mb 60f
3:54pm 9 13 mph 1020.3mb 60f
3:48pm 8 10 mph 1020.3mb 60f
3:42pm 8 11 mph 1020.4mb 59f
3:36pm 9 14 mph 1020.4mb 59f
3:30pm 9 11 mph 1020.5mb 59f
3:24pm 10 13 mph 1020.6mb 59f
3:18pm 9 11 mph 1020.6mb 59f
3:12pm 10 13 mph 1020.6mb 60f
3:06pm 9 13 mph 1020.7mb 59f
3:00pm 9 14 mph 1020.8mb 60f
2:54pm 7 11 mph 1020.8mb 60f
2:48pm 9 13 mph 1020.9mb 60f
2:42pm 9 13 mph 1020.9mb 59f
2:36pm 10 14 mph 1020.9mb 59f
2:30pm 9 14 mph 1021mb 60f
2:24pm 10 14 mph 1020.9mb 59f
2:18pm 10 14 mph 1021mb 59f
2:12pm 10 14 mph 1021mb 59f
2:06pm 10 15 mph 1021.1mb 60f
2:00pm 7 10 mph 1021.1mb 60f
1:54pm 8 13 mph 1021.1mb 59f
1:48pm 9 13 mph 1021.2mb 59f
1:42pm 8 11 mph 1021.3mb 59f
1:36pm 7 10 mph 1021.3mb 60f
1:30pm 8 11 mph 1021.4mb 59f
1:24pm 8 11 mph 1021.4mb 59f
1:18pm 7 10 mph 1021.5mb 59f
1:12pm 7 10 mph 1021.5mb 59f
1:06pm 8 9 mph 1021.5mb 58f
1:00pm 7 10 mph 1021.6mb 58f
12:54pm 7 9 mph 1021.7mb 58f
12:48pm 7 9 mph 1021.7mb 58f
12:42pm 6 8 mph 1021.8mb 57f
12:36pm 6 10 mph 1021.8mb 57f
12:30pm 7 9 mph 1021.9mb 57f
12:24pm 7 10 mph 1021.9mb 58f
12:18pm 7 10 mph 1021.9mb 58f
12:12pm 6 11 mph 1021.9mb 57f
12:06pm 7 9 mph 1021.9mb 57f
12:00pm 5 10 mph 1021.9mb 57f
11:54am 7 10 mph 1021.9mb 57f
11:48am 6 9 mph 1022mb 56f
11:42am 5 9 mph 1022mb 56f
11:36am 6 11 mph 1022mb 56f
11:30am 8 10 mph 1022mb 56f
11:24am 7 11 mph 1022mb 56f
11:18am 5 9 mph 1022mb 56f
11:12am 6 7 mph 1022mb 56f
11:06am 3 8 mph 1022mb 56f
11:00am 6 8 mph 1021.9mb 55f
10:54am 3 8 mph 1022mb 55f
10:48am 6 7 mph 1022mb 55f
10:42am 6 8 mph 1021.9mb 55f
10:36am 2 8 mph 1021.9mb 55f
10:30am 6 7 mph 1021.9mb 55f
10:24am 5 8 mph 1021.8mb 55f
10:18am 3 6 mph 1021.8mb 55f
10:12am 6 7 mph 1021.8mb 55f
10:06am 6 9 mph 1021.7mb 55f
10:00am 3 8 mph 1021.7mb 55f
9:54am 5 7 mph 1021.6mb 55f
9:48am 3 6 mph 1021.6mb 54f
9:42am 5 7 mph 1021.5mb 54f
9:36am 5 6 mph 1021.5mb 54f
9:30am 2 5 mph 1021.4mb 54f
9:24am 2 5 mph 1021.3mb 54f
9:18am 3 6 mph 1021.2mb 53f
9:12am 3 6 mph 1021.2mb 53f
9:06am 6 8 mph 1021.1mb 53f
9:00am 5 7 mph 1021mb 53f
8:54am 6 7 mph 1021mb 53f
8:48am 3 6 mph 1020.9mb 54f
8:42am 5 7 mph 1020.8mb 54f
8:36am 6 7 mph 1020.7mb 53f
8:30am 6 8 mph 1020.7mb 53f
8:24am 5 7 mph 1020.6mb 54f
8:18am 5 7 mph 1020.5mb 54f
8:12am 5 6 mph 1020.5mb 54f
8:06am 3 6 mph 1020.4mb 53f
8:00am 3 6 mph 1020.3mb 54f
7:54am 5 7 mph 1020.3mb 54f
7:48am 6 7 mph 1020.2mb 54f
7:42am 5 6 mph 1020.1mb 54f
7:36am 3 5 mph 1020mb 54f
7:30am 3 5 mph 1019.9mb 54f
7:24am 3 5 mph 1019.8mb 54f
7:18am 5 6 mph 1019.7mb 54f
7:12am 5 6 mph 1019.6mb 54f
7:06am 3 5 mph 1019.6mb 54f
6:54am 5 6 mph 1019.5mb 54f
6:48am 3 7 mph 1019.5mb 54f
6:36am 5 7 mph 1019.4mb 54f
6:24am 5 6 mph 1019.4mb 54f
6:18am 3 5 mph 1019.4mb 54f
6:12am 5 6 mph 1019.4mb 54f
6:06am 3 5 mph 1019.3mb 54f
5:54am 3 5 mph 1019.3mb 54f
5:48am 5 6 mph 1019.2mb 54f
5:42am 5 8 mph 1019.2mb 54f
5:36am 6 8 mph 1019.2mb 54f
5:24am 6 7 mph 1019.2mb 54f
5:18am 5 6 mph 1019.1mb 55f
5:06am 5 7 mph 1019.1mb 55f
5:00am 5 6 mph 1019.1mb 55f
4:54am 5 6 mph 1019.1mb 56f
4:48am 5 7 mph 1019.1mb 56f
4:42am 5 6 mph 1019.1mb 55f
4:36am 3 6 mph 1019.1mb 56f
4:30am 3 5 mph 1019.1mb 56f
4:24am 3 5 mph 1019.1mb 56f
4:18am 5 6 mph 1019.1mb 56f
4:12am 6
mph
1019mb 56f
4:06am 3 5 mph 1019mb 56f
4:00am 3 5 mph 1019mb 56f
3:54am 3 5 mph 1019mb 56f
3:48am 2 5 mph 1018.9mb 56f
3:42am 2 5 mph 1019mb 56f
3:36am 3 5 mph 1019mb 56f
3:30am 3 6 mph 1019mb 56f
3:24am 5 6 mph 1019mb 56f
3:18am 5 7 mph 1019.1mb 56f
3:12am 5 7 mph 1019.1mb 57f
3:06am 3 7 mph 1019.1mb 57f
3:00am 5 6 mph 1019.2mb 57f
2:54am 5 6 mph 1019.2mb 57f
2:48am 5
mph
- 57f
2:42am 3 5 mph - 58f
2:36am 3
mph
- 58f
2:30am 3 5 mph 1019.5mb 58f
2:24am 2 5 mph 1019.5mb 58f
2:18am 2 6 mph 1019.5mb 58f
2:12am 5 6 mph 1019.5mb 58f
2:06am 2 3 mph 1019.5mb 58f
2:00am 2 3 mph 1019.5mb -
1:54am 2 3 mph 1019.5mb -
1:48am 3 5 mph 1019.5mb 58f
1:42am 3 5 mph 1019.5mb 58f
1:36am 2 5 mph 1019.5mb 58f
1:30am 3 5 mph 1019.5mb 58f
1:24am 3 5 mph 1019.6mb 58f
1:12am 6 7 mph 1019.6mb 57f
1:06am 5 8 mph 1019.6mb 58f
1:00am 6 8 mph 1019.6mb 58f
12:54am 6 8 mph 1019.6mb 58f
12:48am 6 8 mph 1019.5mb 59f
12:42am 6 7 mph 1019.6mb 59f
12:36am 6 7 mph 1019.5mb 59f
12:30am 7 8 mph 1019.6mb 59f
12:24am 7 8 mph 1019.5mb 60f
12:18am 5 6 mph 1019.5mb 60f
12:12am 3 6 mph 1019.5mb 60f
12:06am 5 6 mph 1019.4mb 60f
12:00am 3 6 mph 1019.4mb 60f
Thu 03/26 11:54pm 5 6 mph 1019.4mb 60f
11:48pm 5 7 mph 1019.3mb 60f
11:42pm 5 6 mph 1019.2mb 60f
11:36pm 5 6 mph 1019.2mb 61f
11:30pm 3 6 mph 1019.1mb 61f
11:24pm 2 6 mph 1019.2mb 62f
11:18pm 5 6 mph 1019.2mb 62f
11:12pm 5 6 mph 1019.2mb 62f
11:06pm 3 7 mph 1019.3mb 62f
11:00pm 5 6 mph 1019.3mb 62f
10:54pm 5 6 mph 1019.3mb 63f
10:48pm 3 5 mph 1019.3mb 63f
10:42pm 2 5 mph 1019.3mb 63f
10:36pm 5
mph
1019.3mb 63f
10:30pm 3 5 mph 1019.3mb 64f
10:24pm 5 6 mph 1019.2mb 63f
10:18pm 3
mph
1019.1mb 63f
10:12pm 3 5 mph 1019.1mb 63f
10:06pm 5 6 mph 1019mb 64f
10:00pm 3 6 mph 1019mb 64f
9:54pm 3 5 mph 1019mb 64f
9:48pm 3 5 mph 1018.9mb 64f
9:42pm 5 6 mph 1018.9mb 64f
9:36pm 3 6 mph 1018.8mb 64f
9:30pm 5 6 mph 1018.8mb 64f
9:24pm 5 6 mph 1018.7mb 64f
9:18pm 3 6 mph 1018.7mb 64f
9:12pm 5 7 mph 1018.7mb 65f
9:06pm 6 8 mph 1018.6mb 64f
9:00pm 6 9 mph 1018.5mb 64f
8:54pm 6 8 mph 1018.5mb 65f
8:48pm 7 9 mph 1018.4mb 65f
8:42pm 6 8 mph 1018.3mb 66f
8:36pm 6 7 mph 1018.3mb 66f
8:30pm 6 7 mph 1018.2mb 66f
8:24pm 5 7 mph 1018.2mb 66f
8:18pm 7 8 mph 1018.1mb 66f
8:12pm 6 8 mph 1018.1mb 66f
8:06pm 5 7 mph 1018mb 67f
8:00pm 7 8 mph 1017.9mb 67f
7:54pm 6 7 mph 1017.9mb 68f
7:48pm 6 7 mph 1017.8mb 68f
7:42pm 6 7 mph 1017.8mb 69f
7:36pm 6 7 mph 1017.8mb 70f
7:30pm 6 7 mph 1017.7mb 71f
7:24pm 5 6 mph 1017.7mb 72f
7:18pm 6 7 mph 1017.7mb 73f
7:12pm 5 7 mph 1017.7mb 73f
7:06pm 5 7 mph 1017.7mb 71f
7:00pm 5 6 mph 1017.7mb 71f
6:54pm 3 7 mph 1017.7mb 71f
6:48pm 7 8 mph 1017.6mb 71f
6:42pm 7 10 mph 1017.6mb 72f
6:36pm 6 7 mph 1017.6mb 74f
6:30pm 5 8 mph 1017.5mb 75f
6:24pm 6 8 mph 1017.6mb 76f
6:18pm 5 8 mph 1017.5mb 77f
6:12pm 7 9 mph 1017.5mb 77f
6:06pm 7 10 mph 1017.5mb 77f
6:00pm 6 7 mph 1017.5mb 77f
5:54pm 8 10 mph 1017.5mb 77f
5:48pm 8 11 mph 1017.5mb 77f
5:42pm 8 11 mph 1017.6mb 77f
5:36pm 7 10 mph 1017.6mb 77f
5:30pm 8 11 mph 1017.6mb 77f
5:24pm 7 11 mph 1017.6mb 78f
5:18pm 8 13 mph 1017.7mb 78f
5:12pm 9 13 mph 1017.7mb 78f
5:06pm 9 13 mph 1017.7mb 78f
5:00pm 10 14 mph 1017.8mb 78f
4:54pm 9 14 mph 1017.8mb 78f
4:48pm 10 14 mph 1017.8mb 78f
4:42pm 7 13 mph 1017.8mb 78f
4:36pm 9 13 mph 1017.9mb 78f
4:30pm 8 13 mph 1017.9mb 78f
4:24pm 6 13 mph 1017.9mb 79f
4:18pm 8 14 mph 1017.9mb 78f
4:12pm 9 14 mph 1017.9mb 78f
4:06pm 8 13 mph 1017.9mb 78f
4:00pm 8 13 mph 1018mb 78f
3:54pm 7 10 mph 1018mb 78f
3:48pm 8 11 mph 1018.1mb 77f
3:42pm 8 13 mph 1018.1mb 77f
3:36pm 8 13 mph 1018.1mb 77f
3:30pm 9 13 mph 1018.2mb 76f
3:24pm 8 13 mph 1018.3mb 76f
3:18pm 9 11 mph 1018.3mb 76f
3:12pm 7 10 mph 1018.4mb 77f
3:06pm 7 11 mph 1018.5mb 76f
3:00pm 8 10 mph 1018.6mb 76f
2:54pm 7 10 mph 1018.6mb 76f
2:48pm 7 9 mph 1018.6mb 76f
2:42pm 7 9 mph 1018.8mb 75f
2:30pm 8 10 mph 1019mb 75f
2:24pm 6 9 mph 1019.1mb 74f
2:18pm 7 10 mph 1019.1mb 74f
2:12pm 7 8 mph 1019.3mb 74f
2:06pm 7 9 mph 1019.4mb 74f
2:00pm 7 10 mph 1019.5mb 73f
1:54pm 5 8 mph 1019.6mb 71f
1:48pm 7 8 mph 1019.6mb 69f
1:42pm 6 7 mph 1019.7mb 69f
1:36pm 6 7 mph 1019.9mb 69f
1:30pm 6 8 mph 1020mb 69f
1:24pm 7 8 mph 1020.1mb 68f
1:18pm 6 8 mph 1020.3mb 68f
1:12pm 7 8 mph 1020.4mb 68f
1:06pm 7 8 mph 1020.5mb 68f
1:00pm 7 10 mph 1020.5mb 68f
12:54pm 7 8 mph 1020.6mb 68f
12:48pm 6 7 mph 1020.6mb 68f
12:42pm 6
mph
1020.6mb 68f
12:36pm 6
mph
1020.7mb 67f
12:30pm 5 6 mph 1020.7mb 67f
12:24pm 6 7 mph 1020.7mb 66f
12:18pm 6 7 mph 1020.8mb 66f
12:12pm 6 8 mph 1020.8mb 66f
12:06pm 6 8 mph 1020.9mb 65f
12:00pm 7 8 mph 1021mb 65f
11:54am 6 7 mph 1021.1mb 65f
11:48am 7 8 mph 1021.2mb 64f
11:42am 5 7 mph 1021.3mb 64f
11:36am 6 7 mph 1021.4mb 64f
11:30am 6 7 mph 1021.4mb 63f
11:24am 6 7 mph 1021.5mb 63f
11:18am 7
mph
1021.5mb 63f
11:12am 5 8 mph 1021.5mb 64f
11:06am 6 9 mph 1021.6mb 64f
11:00am 6 7 mph 1021.6mb 64f
10:54am 6 8 mph 1021.6mb 64f
10:48am 6 7 mph 1021.6mb 64f
10:42am 6 7 mph 1021.6mb 64f
10:36am 5 6 mph 1021.6mb 64f
10:30am 3 6 mph 1021.7mb 64f
10:24am 3 5 mph 1021.7mb 63f
10:18am 3 6 mph 1021.7mb 63f
10:12am 3 6 mph 1021.7mb 63f
10:06am 5 7 mph 1021.7mb 63f
10:00am 5 6 mph 1021.7mb 63f
9:54am 1 3 mph 1021.8mb 62f
9:48am 2 5 mph 1021.7mb 62f
9:42am 2 5 mph 1021.7mb 62f
9:36am 3 5 mph 1021.7mb 61f
9:30am  -  1 mph 1021.7mb 61f
9:24am  -  1 mph 1021.6mb 61f
9:18am  -  1 mph 1021.6mb 60f
9:12am  -  1 mph 1021.6mb 61f
9:06am 1 2 mph 1021.6mb 61f
9:00am  -  1 mph 1021.5mb 60f
8:54am  -  1 mph 1021.5mb 61f
8:48am  -  1 mph 1021.5mb 62f
8:42am  -  1 mph 1021.5mb 61f
8:36am  -  1 mph 1021.5mb 60f
8:30am  -  1 mph 1021.5mb 61f
8:24am 1
mph
1021.5mb 60f
8:18am 1 2 mph 1021.4mb 60f
8:12am 1
mph
1021.4mb 60f
8:06am 1 2 mph 1021.4mb 59f
8:00am 1 2 mph 1021.4mb 58f
7:54am 1 2 mph 1021.3mb 58f
7:48am  -  1 mph 1021.2mb 58f
7:42am  -  1 mph 1021.1mb 58f
7:36am  -  mph 1021mb 58f
7:30am  -  1 mph 1021mb 58f
7:24am 1
mph
1020.9mb 58f
7:18am  -  1 mph 1020.9mb 57f
7:12am  -  mph 1020.9mb 57f
7:06am 1
mph
1020.7mb 57f
6:54am 1 2 mph 1020.7mb 57f
6:48am 2
mph
1020.6mb 57f
6:42am 1 3 mph 1020.6mb 57f
6:36am 3 5 mph 1020.5mb 57f
6:24am 3 5 mph 1020.5mb 57f
6:18am 2 3 mph 1020.5mb 57f
6:12am  -  1 mph 1020.6mb 58f
6:00am  -  1 mph 1020.6mb 58f
5:54am 1 2 mph 1020.5mb 58f
5:42am  -  1 mph 1020.5mb 58f
5:36am  -  2 mph 1020.5mb 58f
5:30am 1 2 mph 1020.4mb 58f
5:24am  -  1 mph 1020.4mb 58f
5:18am  -  2 mph 1020.4mb 58f
5:12am 2
mph
1020.4mb 58f
5:06am 1 2 mph 1020.4mb 58f
5:00am 1 2 mph 1020.4mb 58f
4:54am 2
mph
1020.3mb 58f
4:48am 2 3 mph 1020.4mb 58f
4:42am 2
mph
1020.5mb 57f
4:36am 2 3 mph 1020.5mb 58f
4:30am 3 5 mph 1020.5mb 57f
4:24am 3
mph
1020.6mb 57f
4:18am 2 5 mph 1020.6mb 57f
4:12am 3
mph
1020.5mb 57f
4:06am 3
mph
1020.5mb 57f
4:00am 2 3 mph 1020.5mb 57f
3:54am  -  1 mph 1020.5mb 57f
3:48am  -  mph 1020.6mb 57f
3:42am  -  mph 1020.6mb 56f
3:36am  -  2 mph 1020.6mb 56f
3:30am 2 3 mph 1020.6mb 57f
3:24am 3 5 mph 1020.6mb 57f
3:18am 3 5 mph 1020.6mb 57f
3:12am 3
mph
1020.6mb 57f
3:06am 2
mph
1020.7mb 57f
3:00am  -  mph 1020.8mb 57f
2:54am  -  mph 1020.8mb 57f
2:48am  -  mph 1020.9mb -
2:42am 1 2 mph 1020.9mb -
2:36am 2
mph
1021mb -
2:30am 1 2 mph 1021mb 58f
2:24am 2
mph
1020.9mb 58f
2:18am 2
mph
1020.9mb 57f
2:12am 1 2 mph 1020.9mb 57f
2:06am 2
mph
1020.9mb 58f
2:00am 2 3 mph 1021mb 58f
1:54am 3
mph
1021mb 58f
1:48am 1 2 mph 1021mb 58f
1:42am  -  1 mph 1021mb 58f
1:36am 1 2 mph 1021mb 58f
1:30am  -  2 mph 1021mb 58f
1:24am 1 2 mph 1021.1mb 58f
1:18am 2
mph
1021.1mb 58f
1:12am 2 3 mph 1021.1mb 58f
1:06am 2 3 mph 1021.1mb 58f
1:00am 2 3 mph 1021.2mb 58f
12:48am 3 5 mph 1021.2mb 58f
12:42am 5 6 mph 1021.3mb 58f
12:36am 6 8 mph 1021.3mb 58f
12:30am 6 7 mph 1021.3mb 58f
12:24am 5 7 mph 1021.4mb 58f
12:18am 3 5 mph 1021.4mb 59f
12:12am 3
mph
1021.4mb 58f
12:06am 2 3 mph 1021.4mb 58f
12:00am 2 3 mph 1021.5mb 59f
Wed 03/25 11:54pm 2
mph
1021.5mb 59f
11:48pm 1 2 mph 1021.4mb -
11:42pm 2 3 mph 1021.4mb -
11:36pm 3 5 mph 1021.5mb -
11:30pm 2
mph
1021.6mb 59f
11:24pm 1 2 mph 1021.6mb 59f
11:18pm 2 3 mph 1021.6mb 59f
11:12pm 3 5 mph 1021.7mb 59f
11:06pm 3 5 mph 1021.7mb 59f
11:00pm 5
mph
1021.6mb 59f
10:54pm 3 5 mph 1021.6mb 60f
10:48pm 1 2 mph 1021.5mb 59f
10:42pm 2 3 mph 1021.5mb 59f
10:36pm 3 5 mph 1021.6mb 59f
10:30pm 3 5 mph 1021.6mb 59f
10:24pm 3 5 mph 1021.7mb 60f
10:18pm 5
mph
1021.7mb 60f
10:12pm 3
mph
1021.7mb 60f
10:06pm 3 6 mph 1021.7mb 60f
10:00pm 5 7 mph 1021.7mb 60f
9:54pm 6 7 mph 1021.6mb 60f
9:48pm 6
mph
1021.6mb 60f
9:42pm 5 6 mph 1021.6mb 60f
9:36pm 5 6 mph 1021.6mb 60f
9:30pm 6 8 mph 1021.6mb 60f
9:24pm 6 8 mph 1021.6mb 61f
9:18pm 3 5 mph 1021.6mb 61f
9:12pm 2
mph
1021.6mb 61f
9:06pm 2 3 mph 1021.6mb 61f
9:00pm 3 6 mph 1021.6mb 60f
8:54pm 5 6 mph 1021.6mb 60f
8:48pm 6 8 mph 1021.6mb 60f
8:42pm 7 8 mph 1021.5mb 60f
8:36pm 7 8 mph 1021.4mb 61f
8:30pm 6 8 mph 1021.4mb 61f
8:24pm 7 8 mph 1021.4mb 61f
8:18pm 7 8 mph 1021.3mb 61f
8:12pm 5 6 mph 1021.2mb 61f
8:00pm 6 7 mph 1021.2mb 61f
7:54pm 6 7 mph 1021.2mb 61f
7:48pm 6 8 mph 1021.1mb 61f
7:42pm 8 9 mph 1021.1mb 61f
7:30pm 7 9 mph 1021.2mb 62f
7:24pm 7 9 mph 1021.2mb 62f
7:18pm 9 10 mph 1021.2mb 62f
7:12pm 9 11 mph 1021.3mb 62f
7:06pm 7 10 mph 1021.3mb 63f
7:00pm 8 9 mph 1021.4mb 63f
6:54pm 8 10 mph 1021.3mb 63f
6:48pm 8 10 mph 1021.3mb 64f
6:36pm 8 9 mph 1021.2mb 64f
6:30pm 7 10 mph 1021.2mb 65f
6:24pm 8 10 mph 1021.2mb 65f
6:18pm 9 11 mph 1021.2mb 65f
6:12pm 8 11 mph 1021.2mb 65f
6:06pm 6 9 mph 1021.2mb 66f
6:00pm 6 9 mph 1021.2mb 66f
5:54pm 6 9 mph 1021.2mb 66f
5:48pm 7 10 mph 1021.2mb 66f
5:42pm 8 13 mph 1021.2mb 66f
5:36pm 9 11 mph 1021.1mb 66f
5:30pm 7 10 mph 1021.1mb 67f
5:24pm 8 10 mph 1021.1mb 66f
5:18pm 6 9 mph 1021.2mb 66f
5:12pm 8 9 mph 1021.1mb 67f
5:06pm 10 13 mph 1021.1mb 66f
5:00pm 9 13 mph 1021.1mb 67f
4:54pm 10 14 mph 1021.1mb 67f
4:48pm 8 11 mph 1021.1mb 67f
4:42pm 8 11 mph 1021.1mb 68f
4:36pm 9 14 mph 1021.1mb 67f
4:30pm 10 13 mph 1021.2mb 68f
4:24pm 8 11 mph 1021.1mb 68f
4:18pm 8 11 mph 1021.2mb 68f
4:12pm 9 11 mph 1021.2mb 68f
4:06pm 10 13 mph 1021.3mb 68f
4:00pm 10 14 mph 1021.3mb 68f
3:54pm 8 13 mph 1021.4mb 68f
3:48pm 9 11 mph 1021.4mb 69f
3:42pm 9 11 mph 1021.4mb 68f
3:36pm 8 11 mph 1021.5mb 69f
3:30pm 9 13 mph 1021.5mb 69f
3:24pm 6 9 mph 1021.6mb 70f
3:18pm 7 10 mph 1021.7mb 69f
3:12pm 7 10 mph 1021.8mb 69f
3:06pm 6 10 mph 1021.9mb 70f
3:00pm 6 10 mph 1021.9mb 70f
2:54pm 8 11 mph 1022mb 70f
2:48pm 8 10 mph 1022.1mb 69f
2:42pm 7 10 mph 1022.2mb 69f
2:36pm 7 11 mph 1022.3mb 69f
2:30pm 8 10 mph 1022.3mb 68f
2:24pm 7 10 mph 1022.3mb 68f
2:18pm 6 10 mph 1022.4mb 69f
2:12pm 6 11 mph 1022.5mb 69f
2:06pm 7 11 mph 1022.6mb 69f
2:00pm 8 10 mph 1022.8mb 68f
1:48pm 6 10 mph 1022.9mb 69f
1:42pm 9 11 mph 1023mb 68f
1:36pm 7 10 mph 1023.1mb 68f
1:30pm 6 10 mph 1023.2mb 68f
1:24pm 7 9 mph 1023.3mb 67f
1:18pm 6 10 mph 1023.3mb 68f
1:12pm 6 10 mph 1023.3mb 68f
1:06pm 6 10 mph 1023.4mb 67f
1:00pm 7 9 mph 1023.5mb 67f
12:54pm 7 10 mph 1023.6mb 67f
12:48pm 8 10 mph 1023.6mb 66f
12:42pm 7 9 mph 1023.7mb 67f
12:36pm 6 9 mph 1023.7mb 66f
12:30pm 6 9 mph 1023.7mb 66f
12:24pm 6 8 mph 1023.8mb 66f
12:18pm 3 7 mph 1023.9mb 64f
12:12pm 6 8 mph 1023.9mb 64f
12:06pm 5 9 mph 1024mb 64f
12:00pm 5 10 mph 1024mb 64f
11:54am 9 10 mph 1024.1mb 63f
11:48am 5 7 mph 1024.1mb 64f
11:42am 2 7 mph 1024.1mb 63f
11:36am 5 8 mph 1024.2mb 63f
11:30am 5 9 mph 1024.2mb 63f
11:24am 5 7 mph 1024.2mb 62f
11:18am 6 7 mph 1024.3mb 62f
11:12am 6 7 mph 1024.3mb 61f
11:06am 7 9 mph 1024.3mb 61f
11:00am 6 8 mph 1024.3mb 61f
10:54am 7 9 mph 1024.2mb 61f
10:48am 5 6 mph 1024.2mb 61f
10:42am 5 7 mph 1024.2mb 60f
10:36am 6 8 mph 1024.1mb 61f
10:30am  -  3 mph 1024.2mb 62f
10:24am 3 6 mph 1024.1mb 61f
10:18am 2 5 mph 1024.1mb 61f
10:12am 3 7 mph 1024.2mb 60f
10:06am 5 8 mph 1024.2mb 60f
10:00am 5 7 mph 1024.2mb 59f
9:54am 6 8 mph 1024.2mb 59f
9:48am 6 7 mph 1024.1mb 59f
9:42am 6 9 mph 1024mb 59f
9:36am 5 9 mph 1024mb 59f
9:30am 6 9 mph 1023.9mb 59f
9:24am 7 9 mph 1023.9mb 59f
9:18am 5 8 mph 1023.8mb 59f
9:12am 6 8 mph 1023.8mb 59f
9:06am 6 8 mph 1023.7mb 59f
9:00am 3 7 mph 1023.7mb 58f
8:54am 6 8 mph 1023.6mb 58f
8:48am 3 6 mph 1023.5mb 58f
8:42am 5 6 mph 1023.5mb 58f
8:36am 3 5 mph 1023.5mb 58f
8:30am 2 6 mph 1023.5mb 58f
8:24am 6 8 mph 1023.4mb 57f
8:18am 2 5 mph 1023.4mb 58f
8:12am 3 6 mph 1023.3mb 57f
8:06am 5 8 mph 1023.2mb 57f
8:00am 6 9 mph 1023.2mb 57f
7:54am 6 8 mph 1023.1mb 57f
7:48am 5 6 mph 1023.1mb 56f
7:42am 3 6 mph 1023.1mb 56f
7:36am 5 7 mph 1023.2mb 56f
7:30am 3 6 mph 1023.1mb 56f
7:24am 5 6 mph 1023.1mb 55f
7:18am 5 7 mph 1023.1mb 55f
7:12am 3 7 mph 1023mb 55f
7:06am 6 8 mph 1022.9mb 55f
7:00am 5 8 mph 1022.8mb 56f
6:54am 6 8 mph 1022.8mb 56f
6:48am 5 6 mph 1022.8mb 56f
6:42am 5 7 mph 1022.8mb 56f
6:36am 6 7 mph 1022.8mb 56f
6:30am 3 7 mph 1022.8mb 56f
6:24am 6 7 mph 1022.7mb 56f
6:18am 3 6 mph 1022.7mb 56f
6:12am 5 6 mph 1022.7mb 56f
6:06am 5 6 mph 1022.8mb 56f
6:00am 5 6 mph 1022.8mb 56f
5:54am 5 6 mph 1022.7mb 56f
5:48am 3 7 mph 1022.7mb 56f
5:42am 5 6 mph 1022.7mb 56f
5:36am 5 7 mph 1022.7mb 56f
5:30am 5 7 mph 1022.7mb 56f
5:24am 5 7 mph 1022.8mb 56f
5:18am 6 9 mph 1022.8mb 56f
5:12am 6 8 mph 1022.8mb 56f
5:06am 5 7 mph 1022.9mb 56f
5:00am 5 7 mph 1022.9mb 56f
4:54am 3 5 mph 1022.8mb 56f
4:48am 3 5 mph 1022.8mb 56f
4:42am 2 3 mph 1022.9mb 56f
4:36am 2 5 mph 1022.9mb 56f
4:30am 2 3 mph 1022.9mb 56f
4:24am 3 5 mph 1022.9mb 56f
4:18am 5 6 mph 1022.9mb 57f
4:12am 3 6 mph 1022.9mb 57f
4:06am 3 6 mph 1023mb 57f
4:00am 3 6 mph 1023mb 57f
3:54am 3 6 mph 1023mb 57f
3:48am 3 6 mph 1023.1mb 57f
3:42am 2 3 mph 1023.1mb 57f
3:36am 1 3 mph 1023.1mb 57f
3:30am 3 5 mph 1023.1mb 57f
3:24am 2 3 mph 1023.1mb 57f
3:18am 2 3 mph 1023.1mb 57f
3:12am 1 2 mph 1023.1mb 57f
3:06am  -  3 mph 1023.1mb 57f
3:00am 1 2 mph 1023.2mb 58f
2:54am  -  2 mph 1023.2mb 57f
2:48am 2 3 mph 1023.1mb -
2:42am 2 3 mph 1023.1mb -
2:36am 2 5 mph 1023.1mb -
2:30am 3 5 mph 1023.2mb 58f
2:24am 3 5 mph 1023.2mb 58f
2:18am 2 5 mph 1023.3mb 58f
2:12am 2 5 mph 1023.3mb 58f
2:06am 2 5 mph 1023.3mb 58f
2:00am 2 3 mph 1023.3mb 58f
1:54am 3 6 mph 1023.3mb 58f
1:48am 3 7 mph 1023.3mb 58f
1:42am 5 7 mph 1023.4mb 58f
1:36am 6 7 mph 1023.4mb 58f
1:30am 5 6 mph 1023.5mb 58f
1:24am 3 5 mph 1023.5mb 58f
1:18am 2 5 mph 1023.6mb 58f
1:12am 2 3 mph 1023.6mb 58f
1:06am 2 3 mph 1023.6mb 58f
1:00am 2 6 mph 1023.6mb 58f
12:54am 3 6 mph 1023.8mb 58f
12:48am 5 7 mph 1023.8mb 58f
12:42am 6 8 mph 1023.9mb 58f
12:36am 8 9 mph 1023.9mb 58f
12:30am 7 9 mph 1024mb 58f
12:24am 7 9 mph 1024.1mb 58f
12:18am 7 9 mph 1024.2mb 58f
12:12am 6 9 mph 1024.2mb 59f
12:06am 8 11 mph 1024.3mb 58f
12:00am 7 11 mph 1024.4mb 59f
Tue 03/24 11:54pm 7 14 mph 1024.4mb 59f
11:48pm 7 10 mph 1024.5mb 59f
11:42pm 9 11 mph 1024.5mb 59f
11:36pm 8 11 mph 1024.5mb 59f
11:30pm 8 11 mph 1024.6mb 59f
11:24pm 7 10 mph 1024.6mb 59f
11:18pm 8 14 mph 1024.5mb 59f
11:12pm 10 14 mph 1024.5mb 59f
11:06pm 7 11 mph 1024.5mb 59f
11:00pm 7 13 mph 1024.5mb 59f
10:54pm 7 14 mph 1024.5mb 59f
10:48pm 8 13 mph 1024.5mb 59f
10:42pm 8 13 mph 1024.5mb 59f
10:36pm 3 6 mph 1024.5mb 59f
10:30pm 3 7 mph 1024.4mb 60f
10:24pm 6 10 mph 1024.4mb 60f
10:18pm 9 14 mph 1024.3mb 60f
10:12pm 9 14 mph 1024.3mb 60f
10:06pm 7 13 mph 1024.3mb 60f
10:00pm 9 11 mph 1024.3mb 60f
9:54pm 6 9 mph 1024.4mb 60f
9:48pm 5 9 mph 1024.4mb 59f
9:42pm 5 7 mph 1024.5mb 59f
9:36pm 5 8 mph 1024.5mb 60f
9:30pm 6 7 mph 1024.5mb 60f
9:24pm 6 7 mph 1024.5mb 60f
9:18pm 5 10 mph 1024.5mb 60f
9:12pm 6 9 mph 1024.4mb 60f
9:06pm 7 10 mph 1024.3mb 60f
9:00pm 6 8 mph 1024.3mb 60f
8:54pm 6 8 mph 1024.2mb 60f
8:48pm 5 9 mph 1024.3mb 60f
8:42pm 7 10 mph 1024.3mb 60f
8:36pm 8 13 mph 1024.2mb 60f
8:30pm 8 11 mph 1024.1mb 60f
8:24pm 8 11 mph 1024.1mb 60f
8:18pm 8 13 mph 1024mb 61f
8:12pm 9 11 mph 1023.9mb 61f
8:06pm 8 9 mph 1023.8mb 61f
8:00pm 6 7 mph 1023.8mb 61f
7:54pm 7 8 mph 1023.8mb 60f
7:48pm 7 8 mph 1023.8mb 60f
7:42pm 6 7 mph 1023.8mb 60f
7:36pm 6 8 mph 1023.7mb 60f
7:30pm 7 9 mph 1023.7mb 60f
7:24pm 7 8 mph 1023.7mb 61f
7:18pm 7 9 mph 1023.7mb 61f
7:12pm 6 9 mph 1023.7mb 61f
7:06pm 7 11 mph 1023.6mb 61f
7:00pm 9 11 mph 1023.5mb 62f
6:54pm 8 10 mph 1023.5mb 62f
6:48pm 7 10 mph 1023.5mb 62f
6:42pm 8 9 mph 1023.6mb 62f
6:36pm 7 9 mph 1023.6mb 62f
6:30pm 6 7 mph 1023.7mb 62f
6:24pm 6 9 mph 1023.6mb 62f
6:18pm 6 8 mph 1023.6mb 62f
6:12pm 6 8 mph 1023.6mb 62f
6:06pm 6 8 mph 1023.5mb 62f
6:00pm 6 8 mph 1023.5mb 62f
5:54pm 6 7 mph 1023.5mb 62f
5:48pm 6 9 mph 1023.6mb 62f
5:42pm 7 9 mph 1023.5mb 62f
5:36pm 7 9 mph 1023.6mb 62f
5:30pm 6 9 mph 1023.6mb 62f
5:24pm 6 10 mph 1023.6mb 62f
5:18pm 7 10 mph 1023.7mb 62f
5:12pm 8 11 mph 1023.7mb 62f
5:06pm 8 11 mph 1023.7mb 62f
5:00pm 9 13 mph 1023.8mb 62f
4:54pm 9 11 mph 1024mb 62f
4:48pm 8 11 mph 1024.1mb 62f
4:42pm 9 14 mph 1024.1mb 62f
4:36pm 9 11 mph 1024.2mb 62f
4:30pm 8 11 mph 1024.3mb 62f
4:24pm 9 11 mph 1024.3mb 62f
4:18pm 10 14 mph 1024.3mb 62f
4:12pm 7 11 mph 1024.3mb 62f
4:06pm 8 10 mph 1024.4mb 62f
4:00pm 7 10 mph 1024.4mb 62f
3:54pm 7 10 mph 1024.4mb 62f
3:48pm 8 10 mph 1024.4mb 62f
3:42pm 6 8 mph 1024.4mb 62f
3:36pm 6 9 mph 1024.5mb 62f
3:30pm 7 9 mph 1024.5mb 62f
3:24pm 6 8 mph 1024.6mb 62f
3:18pm 7 8 mph 1024.6mb 62f
3:12pm 7 9 mph 1024.8mb 62f
3:06pm 7 10 mph 1024.8mb 62f
3:00pm 7 10 mph 1024.8mb 61f
2:54pm 6 11 mph 1025mb 61f
2:48pm 10 14 mph 1025.1mb 61f
2:42pm 8 13 mph 1025.1mb 62f
2:36pm 9 11 mph 1025.2mb 61f
2:30pm 8 10 mph 1025.3mb 62f
2:24pm 8 10 mph 1025.3mb 61f
2:18pm 7 10 mph 1025.3mb 61f
2:12pm 7 10 mph 1025.4mb 61f
2:06pm 7 9 mph 1025.4mb 61f
2:00pm 7 9 mph 1025.4mb 61f
1:54pm 9 10 mph 1025.5mb 61f
1:48pm 8 9 mph 1025.6mb 61f
1:42pm 7 9 mph 1025.6mb 61f
1:36pm 7 9 mph 1025.8mb 61f
1:30pm 8 10 mph 1025.9mb 61f
1:24pm 7 10 mph 1025.9mb 61f
1:18pm 7 10 mph 1026mb 61f
1:12pm 9 10 mph 1026.1mb 61f
1:06pm 7 8 mph 1026.1mb 61f
1:00pm 7 9 mph 1026.2mb 60f
12:54pm 7 9 mph 1026.3mb 61f
12:48pm 8 10 mph 1026.3mb 60f
12:42pm 9 10 mph 1026.3mb 61f
12:36pm 8 9 mph 1026.2mb 61f
12:30pm 7 8 mph 1026.2mb 60f
12:24pm 7 8 mph 1026.2mb 60f
12:18pm 6 7 mph 1026.2mb 60f
12:12pm 6 8 mph 1026.3mb 61f
12:06pm 6 7 mph 1026.3mb 61f
12:00pm 3 8 mph 1026.3mb 61f
11:54am 5 8 mph 1026.3mb 61f
11:48am 6 9 mph 1026.3mb 61f
11:42am 2 7 mph 1026.3mb 61f
11:36am 5 8 mph 1026.4mb 60f
11:30am 2 8 mph 1026.4mb 60f
11:24am 5 7 mph 1026.5mb 60f
11:18am 6 10 mph 1026.6mb 60f
11:12am 6 10 mph 1026.6mb 60f
11:06am 5 7 mph 1026.6mb 60f
11:00am 5 7 mph 1026.5mb 60f
10:54am 3 6 mph 1026.5mb 59f
10:48am 5 9 mph 1026.5mb 59f
10:42am 3 6 mph 1026.4mb 59f
10:36am 5 8 mph 1026.5mb 59f
10:30am 1 6 mph 1026.5mb 59f
10:24am 5 6 mph 1026.5mb 59f
10:18am 5 9 mph 1026.5mb 59f
10:12am 7 9 mph 1026.5mb 58f
10:06am 6 9 mph 1026.4mb 58f
10:00am 5 6 mph 1026.3mb 58f
9:54am 3 7 mph 1026.2mb 58f
9:48am 6 7 mph 1026.2mb 58f
9:42am 3 6 mph 1026.2mb 58f
9:36am 5 6 mph 1026.2mb 58f
9:30am 6
mph
1026.2mb 57f
9:24am 5 7 mph 1026.1mb 57f
9:18am 3 5 mph 1026mb 57f
9:12am 2 5 mph 1025.9mb 57f
9:06am 2 3 mph 1025.8mb 57f
9:00am 2 3 mph 1025.7mb 57f
8:54am 2 3 mph 1025.6mb 57f
8:48am 3 5 mph 1025.6mb 57f
8:42am 3 5 mph 1025.6mb 57f
8:36am 2 5 mph 1025.6mb 57f
8:30am 2 5 mph 1025.6mb 56f
8:24am 3 5 mph 1025.5mb 57f
8:18am 3 5 mph 1025.5mb 56f
8:12am 5 6 mph 1025.4mb 56f
8:06am 3 6 mph 1025.5mb 56f
8:00am 3 6 mph 1025.6mb 56f
7:54am 3 5 mph 1025.7mb 56f
7:48am 2 3 mph 1025.7mb 56f
7:42am 3
mph
1025.7mb 56f
7:36am 2 3 mph 1025.6mb 56f
7:30am 2 3 mph 1025.6mb 56f
7:24am 3 5 mph 1025.6mb 56f
7:18am 3 5 mph 1025.5mb 56f
7:12am 3 5 mph 1025.4mb 56f
7:06am 5 6 mph 1025.3mb 56f
7:00am 3 5 mph 1025.2mb 56f
6:54am 3 6 mph 1025.2mb 56f
6:48am 5 6 mph 1025.1mb 56f
6:42am 6
mph
1025.1mb 56f
6:36am 6 7 mph 1025.1mb 56f
6:30am 6
mph
1025mb 56f
6:24am 5
mph
1025.1mb 56f
6:18am 3 5 mph 1025.1mb 56f
6:12am 2 3 mph 1025.1mb 57f
6:06am 2 3 mph 1025mb 56f
6:00am 2 3 mph 1025mb 56f
5:54am 2 3 mph 1025mb 56f
5:48am 2 3 mph 1025.1mb 56f
5:42am 2 3 mph 1025mb 56f
5:36am 3 5 mph 1025mb 56f
5:30am 3 5 mph 1025.1mb 56f
5:24am 2 3 mph 1025.1mb 56f
5:18am 2 3 mph 1025.1mb 56f
5:12am 3 5 mph 1025mb 56f
5:06am 3 5 mph 1025.1mb 56f
5:00am 2 3 mph 1025.1mb 56f
4:54am 3 5 mph 1025.1mb 56f
4:48am 2 6 mph 1025mb 56f
4:42am 6 7 mph 1025mb 56f
4:36am 3 6 mph 1025.1mb 56f
4:30am 3 6 mph 1025.1mb 56f
4:24am 3 5 mph 1025.1mb 56f
4:18am 5 6 mph 1025.1mb 56f
4:12am 5 6 mph 1025.1mb 56f
4:06am 5 6 mph 1025.2mb 57f
4:00am 3 5 mph 1025.3mb 56f
3:54am 5 6 mph 1025.2mb 56f
3:48am 2 3 mph 1025.3mb 56f
3:42am 3 5 mph 1025.3mb 57f
3:36am 2 5 mph 1025.4mb 56f
3:30am 2 3 mph 1025.5mb 56f
3:24am 2 3 mph 1025.4mb 56f
3:18am 2
mph
1025.4mb 56f
3:12am 2 3 mph 1025.4mb 56f
3:06am 2 3 mph 1025.4mb 56f
3:00am 2 3 mph 1025.4mb 56f
2:54am 2 3 mph 1025.5mb 56f
2:48am 3 5 mph 1025.5mb -
2:42am 3 5 mph 1025.6mb -
2:36am 3
mph
1025.6mb -
2:30am 2 3 mph 1025.6mb 56f
2:24am 2 3 mph 1025.6mb 56f
2:18am 2 5 mph 1025.6mb 56f
2:12am 3 5 mph 1025.7mb 56f
2:06am 3 5 mph 1025.8mb 56f